COSMOS 2491 DEB, 57550

Orbit data source: Space-Track

COSMOS 2491 DEB, 57550 is space debris in LEO originally from a launch on Wed, 25 Dec 2013 UTC launched from the Plesetsk Missile And Space Complex (PKMTR). Debris objects in space refer to the collection of defunct objects orbiting the Earth. Examples of debris include non-operational satellites, rocket bodies, and fragments generated from explosions, collisions, or faulty payload assembly.

Loading next visibility...
Identifier
57550, 2013-076AM
Orbit
LEO
Country
Flag of CISCIS
Related business
Manufacturer
TsNIIKhM
Mission
Spacecraft
Bus & Motor
Unknown
Mass
Unknown
Launch date (UTC)
2013-12-25 (12 years ago)
Launch vehicle
Unknown
Launch site
Plesetsk Missile And Space Complex (PKMTR)
Object type
Payload
Rocket body
Debris
Shape & HBR
Unknown shape, 0.1 m
Radar Cross Section
Small (<0.1 m²)

Expand to show TLE details & history
Last TLE update: 3 days ago

TLE from 3 days ago
0 COSMOS 2491 DEB
1 57550U 13076AM  26170.55234534  .00004853  00000-0  20901-1 0  9999
2 57550  82.4419  96.0206 0199176  76.0435 286.2724 12.75373705144395
Epoch: 2026-06-19T13:15Z
TLE epoch observation values (Epoch: 2026-06-19T13:15:22.637Z)
Latitude
-0.00006°
Longitude
-10.60341°
Altitude
1,322.531 km
Speed
7.215 km/s
True Right ascension
06h 24m 04s
True Declination
0° 00' 00"
Sunlit
Object was in daylight at epoch
Visualization orbit readout
Latitude
Unknown
Longitude
Unknown
Altitude
Unknown
Speed
Unknown
Apparent Right ascension
Unknown
Apparent Declination
Unknown
Sunlit
N/A
Visualization observer readout
Local Sidereal Time
23:19:50
Azimuth
Unknown
Elevation
Unknown
Doppler factor
Unknown
Orbital elements
Apogee altitude
1,511.507 km
Perigee altitude
1,203.359 km
Semi-major axis
7,735.57 km
Eccentricity
0.01992
Inclination
82.4419°
RAAN
96.0206°
Arg. of periapsis
76.0435°
True anomaly
284.0666°
Mean anomaly
286.2724°
Eccentric anomaly
285.17098°
Mean motion
3.1901 °/min
Orbital period
112.85 mins
BSTAR
0.020901
Loading maneuver chart data...
Computing Atmospheric mass density...
Loading historical data...
Loading historical data...
Loading historical data...
Loading historical data...
Loading historical data...
Loading historical data...
Loading historical data...

Documentation

Showing up to 5 results
|